Location: Saint-Restitut
(44.3351°N, 4.7915°E)
Time: 12:17:21
(UTC+00:00)

Lacrosse 5 - Pass Details

Date: 03 February 2023
Orbit: 714 x 724 km, 57.0° (Epoch: 09 March)

Event Time Altitude Azimuth Distance (km) Brightness Sun altitude
Rises 20:09:42 0° 279° (W) 3,137 6.2 -35.4°
Reaches altitude 10° 20:12:34 10° 294° (WNW) 2,218 5.1 -35.9°
Enters shadow 20:15:03 20° 320° (NW) 1,648 4.1 -36.3°
